EDT,Max TemperatureF,Mean TemperatureF,Min TemperatureF,Max Dew PointF,MeanDew PointF,Min DewpointF,Max Humidity, Mean Humidity, Min Humidity, Max Sea Level PressureIn, Mean Sea Level PressureIn, Min Sea Level PressureIn, Max VisibilityMiles, Mean VisibilityMiles, Min VisibilityMiles, Max Wind SpeedMPH, Mean Wind SpeedMPH, Max Gust SpeedMPH,PrecipitationIn, CloudCover, Events, WindDirDegrees
2013-8-1,80,71,64,67,64,63,97,83,61,30.04,29.94,29.85,10,9,3,14,4,17,0.26,5,Rain,169
2013-8-2,84,74,66,66,64,57,100,82,41,29.88,29.83,29.79,10,6,0,13,4,20,0.25,6,Fog-Rain-Thunderstorm,281
2013-8-3,80,70,62,64,63,59,100,79,56,29.88,29.85,29.81,10,8,0,10,4,21,0.10,4,Fog-Rain-Thunderstorm,197
2013-8-4,80,69,59,63,57,51,100,71,40,29.94,29.86,29.82,10,8,0,15,3,24,0.01,1,Fog-Thunderstorm,327
2013-8-5,77,66,55,56,50,42,93,56,31,30.05,29.99,29.93,10,10,10,14,4,22,0.00,0,,318
2013-8-6,79,66,55,61,56,51,93,69,42,30.14,30.11,30.05,10,10,10,10,3,,0.00,1,,134
2013-8-7,79,67,57,63,60,54,100,75,48,30.18,30.14,30.10,10,10,2,12,3,17,0.00,4,,157
2013-8-8,82,76,69,72,69,63,100,84,69,30.08,30.04,30.01,10,9,2,13,7,17,0.12,7,Rain,179
2013-8-9,79,76,73,76,73,70,100,93,84,30.02,29.87,29.78,10,6,2,14,8,22,1.15,7,Rain-Thunderstorm,172
2013-8-10,84,74,66,72,60,46,94,63,38,30.05,29.93,29.82,10,10,6,12,5,18,0.00,1,,316
2013-8-11,81,68,55,60,54,51,97,63,38,30.12,30.06,30.01,10,10,10,8,2,,0.00,2,,221
2013-8-12,82,73,64,63,60,54,93,67,41,30.03,29.98,29.92,10,10,10,9,3,,0.00,1,,149
2013-8-13,75,70,66,70,67,62,96,85,64,29.93,29.80,29.69,10,7,2,9,4,,0.04,7,Rain,168
2013-8-14,75,68,61,62,52,49,78,58,40,30.01,29.83,29.72,10,10,10,16,8,26,0.00,2,,319
2013-8-15,77,66,54,54,51,46,97,60,34,30.11,30.07,30.02,10,10,10,13,3,17,0.00,2,,287
2013-8-16,80,70,60,58,55,50,86,59,37,30.21,30.16,30.13,10,10,10,7,3,,0.00,2,,158
2013-8-17,82,68,55,61,56,46,97,67,29,30.28,30.25,30.21,10,10,7,6,2,,0.00,0,,43
2013-8-18,78,70,62,63,61,58,93,76,50,30.28,30.21,30.12,10,10,8,7,1,,0.00,1,Rain,152
2013-8-19,80,71,62,64,60,57,90,69,45,30.10,30.05,30.00,10,10,10,10,5,,0.00,0,,219
2013-8-20,86,73,62,64,61,56,94,68,38,30.12,30.07,30.02,10,9,1,9,2,16,0.00,0,,305
2013-8-21,88,75,62,65,62,59,97,69,39,30.17,30.11,30.04,10,8,2,7,2,,0.00,0,,228
2013-8-22,81,73,66,72,69,64,94,86,71,30.06,29.96,29.86,10,7,2,10,3,,0.02,2,Rain,189
2013-8-23,82,76,66,70,60,52,93,63,37,30.12,29.96,29.86,10,10,7,13,5,20,0.00,2,,9
2013-8-24,79,68,57,58,52,49,86,59,36,30.35,30.27,30.15,10,10,10,10,6,,0.00,0,,7
2013-8-25,82,68,55,59,54,47,100,71,29,30.39,30.31,30.21,10,8,0,9,1,,0.00,0,Fog,177
2013-8-26,75,70,66,70,63,57,100,79,64,30.21,30.04,29.91,10,8,2,8,5,,0.28,5,Rain,181
2013-8-27,86,76,69,71,69,66,100,84,55,29.90,29.85,29.82,10,8,2,12,7,16,0.01,6,Rain,11
2013-8-28,87,76,66,70,68,65,100,86,51,29.91,29.88,29.83,10,6,0,13,1,22,0.00,3,Fog-Thunderstorm,132
2013-8-29,78,70,66,70,65,60,94,80,65,30.05,29.99,29.92,10,10,6,10,4,,0.00,7,,57
2013-8-30,84,74,64,69,64,60,94,79,51,30.03,29.95,29.85,10,10,6,8,3,,0.00,6,,185
2013-8-31,81,76,72,73,71,69,94,85,74,29.84,29.82,29.78,10,8,4,13,7,20,0.02,4,Rain-Thunderstorm,175